Change the Weather History Date:

Monday, January 20, 2014

  Actual Average Record
Temperature  
Mean Temperature 13 °F -  
Max Temperature 32 °F 16 °F 33 °F (2015)
Min Temperature -6 °F 0 °F 25 °F (2015)
Degree Days  
Heating Degree Days 52    
Month to date heating degree days 1028  
Moisture  
Dew Point 1 °F    
Average Humidity 79    
Maximum Humidity 92    
Minimum Humidity 65    
Precipitation  
Precipitation 0.04 in - - ()
Month to date precipitation 0.38  
Year to date precipitation 0.38  
Sea Level Pressure  
Sea Level Pressure 30.33 in    
Wind  
Wind Speed 15 mph (NNW)    
Max Wind Speed 31 mph    
Max Gust Speed 40 mph    
Averages and records for this station are not official NWS values.
T = Trace of Precipitation, MM = Missing Value Source: NWS Daily Summary

Daily Weather History Graph

Daily Weather History Graph

Search for Another Location

Airport or City:

Trip Planner

Search our weather history database for the weather conditions in past years. The results will help you decide how hot, cold, wet, or windy it might be!

Date:

Astronomy

Jan. 20, 2014 Rise Set
Actual Time 8:25 AM CST 5:28 PM CST
Civil Twilight 7:51 AM CST 6:02 PM CST
Nautical Twilight 7:13 AM CST 6:40 PM CST
Astronomical Twilight 6:36 AM CST 7:17 PM CST
Moon 10:28 PM CST (1/20) 10:05 AM CST (1/20)
Length of Visible Light 10h 11m
Length of Day
9h 03m
Waning Gibbous, 82% of the Moon is Illuminated
Jan 20
Waning Gibbous
Jan 23
Last Quarter
Jan 30
New
Feb 6
First Quarter
Feb 14
Full

Hourly Weather History & Observations

Time (CST) Temp. Windchill Dew Point Humidity Pressure Visibility Wind Dir Wind Speed Gust Speed Precip Events Conditions
12:52 AM 30.9 °F 19.8 °F 26.1 °F 82% 29.83 in - WNW 16.1 mph - N/A   Unknown
1:52 AM 30.9 °F 17.8 °F 25.0 °F 79% 29.83 in - WNW 23.0 mph - N/A   Unknown
2:52 AM 32.0 °F 19.2 °F 26.1 °F 79% 29.86 in - WNW 23.0 mph 28.8 mph N/A   Unknown
3:52 AM 30.9 °F 18.7 °F 28.0 °F 89% 29.87 in - WNW 19.6 mph 31.1 mph N/A   Unknown
4:52 AM 32.0 °F 19.8 °F 28.0 °F 85% 29.88 in - WNW 20.7 mph 28.8 mph N/A   Unknown
5:47 AM 19.9 °F 6.2 °F 18.0 °F 92% 29.94 in - NNE 15.0 mph 28.8 mph 0.04 in   Unknown
5:54 AM 19.0 °F 6.1 °F 16.0 °F 88% 29.87 in - NNE 12.7 mph 20.7 mph N/A   Unknown
6:52 AM 8.1 °F -7.0 °F 3.9 °F 83% 30.06 in - NE 11.5 mph 20.7 mph N/A   Unknown
7:52 AM 3.9 °F -16.1 °F -0.9 °F 80% 30.20 in - NNE 18.4 mph 24.2 mph N/A   Unknown
8:52 AM 1.9 °F -17.5 °F -2.9 °F 80% 30.30 in - NNE 16.1 mph 24.2 mph N/A   Unknown
9:52 AM -2.0 °F -21.2 °F -7.1 °F 79% 30.41 in - North 13.8 mph 26.5 mph N/A   Unknown
10:52 AM -2.9 °F -18.8 °F -9.0 °F 75% 30.48 in - North 9.2 mph 19.6 mph N/A   Unknown
11:52 AM -2.0 °F -20.5 °F -9.9 °F 69% 30.54 in - North 12.7 mph 24.2 mph N/A   Unknown
12:52 PM -0.9 °F -21.2 °F -9.0 °F 69% 30.55 in - North 16.1 mph - N/A   Unknown
1:52 PM -0.0 °F -19.4 °F -8.0 °F 69% 30.55 in - NNW 15.0 mph - N/A   Unknown
2:52 PM -0.0 °F -18.7 °F -8.0 °F 69% 30.55 in - NNW 13.8 mph - N/A   Unknown
3:52 PM -0.9 °F -17.4 °F -9.0 °F 69% 30.58 in - NNW 10.4 mph - N/A   Unknown
4:52 PM -2.0 °F -16.6 °F -9.0 °F 72% 30.59 in - North 8.1 mph - N/A   Unknown
5:52 PM -5.1 °F - -9.9 °F 80% 30.62 in - Calm Calm - N/A   Unknown
6:52 PM -6.0 °F - -11.0 °F 79% 30.64 in - Calm Calm - N/A   Unknown
7:52 PM -11.9 °F - -17.0 °F 78% 30.64 in - Calm Calm - N/A   Unknown
8:52 PM -8.0 °F - -13.0 °F 79% 30.63 in - Calm Calm - N/A   Unknown
9:52 PM -11.0 °F - -17.0 °F 75% 30.62 in - Calm Calm - N/A   Unknown
10:52 PM -5.1 °F -21.5 °F -9.0 °F 83% 30.56 in - South 9.2 mph - N/A   Unknown
11:52 PM -2.9 °F -18.8 °F -7.1 °F 82% 30.53 in - South 9.2 mph - N/A   Unknown